START_TIME,STEP,MOV.,AL01,t_acc.,AL02,t_acc.,E37,t_acc.,H21,t_acc.
1979-03-09 18:00:31.170 ,2,1,0.,24.0,0.,24.0,3.,24.0,0.,24.0
1979-03-09 18:00:55.170 ,3,1,0.,24.0,0.,24.0,1.,24.0,0.,24.0
1979-03-09 18:01:19.170 ,4,1,0.,24.0,0.,24.0,4.,24.0,0.,24.0
1979-03-09 18:01:43.170 ,5,1,0.,24.0,0.,24.0,4.,24.0,0.,24.0
1979-03-09 18:02:07.170 ,6,1,0.,24.0,0.,24.0,5.,24.0,0.,24.0
1979-03-09 18:02:31.170 ,7,1,0.,24.0,0.,24.0,1.,24.0,0.,24.0
1979-03-09 18:02:55.170 ,7,1,7.,24.0,0.,24.0,5.,24.0,0.,24.0
1979-03-09 18:03:19.170 ,6,1,8.,24.0,0.,24.0,6.,24.0,0.,24.0
1979-03-09 18:03:43.170 ,5,1,0.,24.0,0.,24.0,7.,24.0,0.,24.0
1979-03-09 18:04:07.170 ,4,1,0.,24.0,0.,24.0,8.,24.0,0.,24.0
1979-03-09 18:04:31.170 ,3,1,0.,24.0,0.,24.0,5.,24.0,0.,24.0
1979-03-09 18:04:55.170 ,2,1,0.,24.0,0.,24.0,2.,24.0,0.,24.0
1979-03-09 18:05:19.170 ,1,1,0.,24.0,0.,24.0,6.,24.0,0.,24.0
1979-03-09 18:05:43.170 ,0,1,0.,24.0,0.,24.0,4.,24.0,0.,24.0
1979-03-09 18:06:07.170 ,0,1,0.,24.0,0.,24.0,6.,24.0,0.,24.0
1979-03-09 18:06:31.170 ,1,1,0.,24.0,0.,24.0,6.,24.0,0.,24.0
1979-03-09 18:06:55.170 ,2,1,0.,24.0,0.,24.0,6.,24.0,0.,24.0
1979-03-09 18:07:19.160 ,3,1,0.,24.0,0.,24.0,6.,24.0,0.,24.0
1979-03-09 18:07:43.160 ,4,1,0.,24.0,0.,24.0,3.,24.0,0.,24.0
1979-03-09 18:08:07.160 ,5,1,0.,24.0,0.,24.0,3.,24.0,0.,24.0
1979-03-09 18:08:31.160 ,6,1,0.,24.0,0.,24.0,6.,24.0,0.,24.0
1979-03-09 18:08:55.160 ,7,1,2.,24.0,0.,24.0,4.,24.0,0.,24.0
1979-03-09 18:09:19.160 ,7,1,8.,24.0,0.,24.0,7.,24.0,0.,24.0
1979-03-09 18:09:43.160 ,6,1,6.,24.0,0.,24.0,5.,24.0,0.,24.0
1979-03-09 18:10:07.160 ,5,1,0.,24.0,0.,24.0,5.,24.0,0.,24.0
1979-03-09 18:10:31.160 ,4,1,0.,24.0,0.,24.0,7.,24.0,0.,24.0
1979-03-09 18:10:55.160 ,3,1,0.,24.0,1.,24.0,2.,24.0,0.,24.0
1979-03-09 18:11:19.160 ,2,1,0.,24.0,0.,24.0,1.,24.0,0.,24.0
1979-03-09 18:11:43.160 ,1,1,0.,24.0,0.,24.0,2.,24.0,0.,24.0
1979-03-09 18:12:07.160 ,0,1,0.,24.0,0.,24.0,0.,24.0,0.,24.0
1979-03-09 18:12:31.160 ,0,1,0.,24.0,0.,24.0,1.,24.0,0.,24.0
1979-03-09 18:12:55.160 ,1,1,0.,24.0,0.,24.0,0.,24.0,0.,24.0
1979-03-09 18:13:19.160 ,2,1,0.,24.0,0.,24.0,0.,24.0,0.,24.0
1979-03-09 18:13:43.160 ,3,1,0.,24.0,0.,24.0,0.,24.0,0.,24.0
1979-03-09 18:14:07.160 ,4,1,1.,24.0,0.,24.0,1.,24.0,0.,24.0
1979-03-09 18:14:31.160 ,5,1,0.,24.0,0.,24.0,0.,24.0,0.,24.0
1979-03-09 18:14:55.160 ,6,1,0.,24.0,0.,24.0,0.,24.0,0.,24.0
1979-03-09 18:15:19.150 ,7,1,1.,24.0,0.,24.0,0.,24.0,0.,24.0
1979-03-09 18:15:43.150 ,7,1,13.,24.0,0.,24.0,0.,24.0,0.,24.0
1979-03-09 18:16:07.150 ,6,1,8.,24.0,0.,24.0,0.,24.0,0.,24.0
1979-03-09 18:16:31.150 ,5,1,0.,24.0,0.,24.0,0.,24.0,0.,24.0
1979-03-09 18:16:55.150 ,4,1,0.,24.0,0.,24.0,0.,24.0,0.,24.0
1979-03-09 18:17:19.150 ,3,1,0.,24.0,0.,24.0,0.,24.0,0.,24.0
1979-03-09 18:17:43.150 ,2,1,0.,24.0,0.,24.0,0.,24.0,0.,24.0
1979-03-09 18:18:07.150 ,1,1,0.,24.0,0.,24.0,0.,24.0,0.,24.0
1979-03-09 18:18:31.150 ,0,1,0.,24.0,0.,24.0,1.,24.0,0.,24.0
1979-03-09 18:18:55.150 ,0,1,0.,24.0,0.,24.0,1.,24.0,0.,24.0
1979-03-09 18:19:19.150 ,1,1,0.,24.0,0.,24.0,0.,24.0,0.,24.0
1979-03-09 18:19:43.150 ,2,1,0.,24.0,0.,24.0,0.,24.0,0.,24.0
1979-03-09 18:20:07.150 ,3,1,0.,24.0,0.,24.0,0.,24.0,0.,24.0
1979-03-09 18:20:31.150 ,4,1,0.,24.0,0.,24.0,0.,24.0,0.,24.0
1979-03-09 18:20:55.150 ,5,1,0.,24.0,0.,24.0,0.,24.0,0.,24.0
1979-03-09 18:21:19.150 ,6,1,0.,24.0,0.,24.0,0.,24.0,0.,24.0
1979-03-09 18:21:43.150 ,7,1,4.,24.0,0.,24.0,0.,24.0,0.,24.0
1979-03-09 18:22:07.150 ,7,1,10.,24.0,0.,24.0,0.,24.0,0.,24.0
1979-03-09 18:22:31.150 ,6,1,6.,24.0,0.,24.0,2.,24.0,0.,24.0
1979-03-09 18:22:55.150 ,5,1,0.,24.0,0.,24.0,0.,24.0,0.,24.0
1979-03-09 18:23:19.150 ,4,1,0.,24.0,0.,24.0,0.,24.0,0.,24.0
1979-03-09 18:23:43.150 ,3,1,0.,24.0,0.,24.0,0.,24.0,0.,24.0
1979-03-09 18:24:07.150 ,2,1,0.,24.0,0.,24.0,0.,24.0,0.,24.0
1979-03-09 18:24:31.150 ,1,1,0.,24.0,0.,24.0,0.,24.0,0.,24.0
1979-03-09 18:24:55.150 ,0,1,0.,24.0,0.,24.0,0.,24.0,0.,24.0
1979-03-09 18:25:19.150 ,0,1,0.,24.0,0.,24.0,0.,24.0,0.,24.0
1979-03-09 18:25:43.140 ,1,1,0.,24.0,0.,24.0,0.,24.0,0.,24.0
1979-03-09 18:26:07.140 ,2,1,0.,24.0,0.,24.0,1.,24.0,0.,24.0
1979-03-09 18:26:31.140 ,3,1,0.,24.0,0.,24.0,0.,24.0,0.,24.0
1979-03-09 18:26:55.140 ,4,1,0.,24.0,0.,24.0,1.,24.0,0.,24.0
1979-03-09 18:27:19.140 ,5,1,0.,24.0,0.,24.0,0.,24.0,0.,24.0
1979-03-09 18:27:43.140 ,6,1,0.,24.0,0.,24.0,0.,24.0,0.,24.0
1979-03-09 18:28:07.140 ,7,1,1.,24.0,0.,24.0,0.,24.0,0.,24.0
1979-03-09 18:28:31.140 ,7,1,5.,24.0,0.,24.0,0.,24.0,0.,24.0
1979-03-09 18:28:55.140 ,6,1,5.,24.0,0.,24.0,0.,24.0,0.,24.0
1979-03-09 18:29:19.140 ,5,1,0.,24.0,0.,24.0,0.,24.0,0.,24.0
1979-03-09 18:29:43.140 ,4,1,0.,24.0,0.,24.0,0.,24.0,0.,24.0
1979-03-09 18:30:07.140 ,3,1,0.,24.0,0.,24.0,0.,24.0,0.,24.0
1979-03-09 18:30:31.140 ,2,1,0.,24.0,0.,24.0,0.,24.0,0.,24.0
1979-03-09 18:30:55.140 ,1,1,0.,24.0,0.,24.0,0.,24.0,0.,24.0
1979-03-09 18:31:19.140 ,0,1,0.,24.0,0.,24.0,0.,24.0,0.,24.0
1979-03-09 18:31:43.140 ,0,1,0.,24.0,0.,24.0,0.,24.0,0.,24.0
1979-03-09 18:32:07.140 ,1,1,0.,24.0,0.,24.0,0.,24.0,0.,24.0
1979-03-09 18:32:31.140 ,2,1,0.,24.0,0.,24.0,0.,24.0,0.,24.0
1979-03-09 18:32:55.140 ,3,1,0.,24.0,0.,24.0,0.,24.0,0.,24.0
1979-03-09 18:33:19.140 ,4,1,0.,24.0,0.,24.0,0.,24.0,0.,24.0
1979-03-09 18:33:43.140 ,5,1,0.,24.0,0.,24.0,1.,24.0,0.,24.0
1979-03-09 18:34:07.140 ,6,1,0.,24.0,0.,24.0,0.,24.0,0.,24.0
1979-03-09 18:34:31.130 ,7,1,1.,24.0,0.,24.0,0.,24.0,0.,24.0
1979-03-09 18:34:55.130 ,7,1,8.,24.0,0.,24.0,0.,24.0,0.,24.0
1979-03-09 18:35:19.130 ,6,1,7.,24.0,0.,24.0,1.,24.0,0.,24.0
1979-03-09 18:35:43.130 ,5,1,0.,24.0,0.,24.0,0.,24.0,0.,24.0
1979-03-09 18:36:07.130 ,4,1,0.,24.0,0.,24.0,1.,24.0,0.,24.0
1979-03-09 18:36:31.130 ,3,1,0.,24.0,0.,24.0,0.,24.0,0.,24.0
1979-03-09 18:36:55.130 ,2,1,0.,24.0,0.,24.0,0.,24.0,0.,24.0
1979-03-09 18:37:19.130 ,1,1,0.,24.0,0.,24.0,1.,24.0,0.,24.0
1979-03-09 18:37:43.130 ,0,1,0.,24.0,0.,24.0,2.,24.0,0.,24.0
1979-03-09 18:38:07.130 ,0,1,0.,24.0,0.,24.0,1.,24.0,0.,24.0
1979-03-09 18:38:31.130 ,1,1,0.,24.0,0.,24.0,1.,24.0,0.,24.0
1979-03-09 18:38:55.130 ,2,1,0.,24.0,0.,24.0,0.,24.0,0.,24.0
1979-03-09 18:39:19.130 ,3,1,0.,24.0,0.,24.0,1.,24.0,0.,24.0
1979-03-09 18:39:43.130 ,4,1,0.,24.0,0.,24.0,0.,24.0,0.,24.0
1979-03-09 18:40:07.130 ,5,1,0.,24.0,0.,24.0,1.,24.0,0.,24.0
1979-03-09 18:40:31.130 ,6,1,0.,24.0,0.,24.0,0.,24.0,0.,24.0
1979-03-09 18:40:55.130 ,7,1,5.,24.0,0.,24.0,0.,24.0,0.,24.0
1979-03-09 18:41:19.130 ,7,1,8.,24.0,0.,24.0,0.,24.0,0.,24.0
1979-03-09 18:41:43.130 ,6,1,5.,24.0,0.,24.0,0.,24.0,0.,24.0
1979-03-09 18:42:07.130 ,5,1,0.,24.0,0.,24.0,0.,24.0,0.,24.0
1979-03-09 18:42:31.130 ,4,1,0.,24.0,0.,24.0,0.,24.0,0.,24.0
1979-03-09 18:42:55.130 ,3,1,0.,24.0,0.,24.0,0.,24.0,0.,24.0
1979-03-09 18:43:19.120 ,2,1,0.,24.0,0.,24.0,0.,24.0,0.,24.0
1979-03-09 18:43:43.120 ,1,1,0.,24.0,0.,24.0,0.,24.0,0.,24.0
1979-03-09 18:44:07.120 ,0,1,0.,24.0,0.,24.0,0.,24.0,0.,24.0
1979-03-09 18:44:31.120 ,0,1,0.,24.0,0.,24.0,0.,24.0,0.,24.0
1979-03-09 18:44:55.120 ,1,1,0.,24.0,0.,24.0,0.,24.0,0.,24.0
1979-03-09 18:45:19.120 ,2,1,0.,24.0,0.,24.0,1.,24.0,0.,24.0
1979-03-09 18:45:43.120 ,3,1,0.,24.0,0.,24.0,0.,24.0,0.,24.0
1979-03-09 18:46:07.120 ,4,1,0.,24.0,0.,24.0,0.,24.0,0.,24.0
1979-03-09 18:46:31.120 ,5,1,0.,24.0,0.,24.0,0.,24.0,0.,24.0
1979-03-09 18:46:55.120 ,6,1,0.,24.0,0.,24.0,0.,24.0,0.,24.0
1979-03-09 18:47:19.120 ,7,1,2.,24.0,0.,24.0,0.,24.0,0.,24.0
1979-03-09 18:47:43.120 ,7,1,7.,24.0,0.,24.0,0.,24.0,0.,24.0
1979-03-09 18:48:07.120 ,6,1,4.,24.0,0.,24.0,0.,24.0,0.,24.0
1979-03-09 18:48:31.120 ,5,1,0.,24.0,0.,24.0,0.,24.0,0.,24.0
1979-03-09 18:48:55.120 ,4,1,0.,24.0,0.,24.0,0.,24.0,0.,24.0
1979-03-09 18:49:19.120 ,3,1,0.,24.0,0.,24.0,0.,24.0,0.,24.0
1979-03-09 18:49:43.120 ,2,1,0.,24.0,0.,24.0,0.,24.0,0.,24.0
1979-03-09 18:50:07.120 ,1,1,0.,24.0,0.,24.0,0.,24.0,0.,24.0
1979-03-09 18:50:31.120 ,0,1,0.,24.0,0.,24.0,0.,24.0,0.,24.0
1979-03-09 18:50:55.120 ,0,1,1.,24.0,0.,24.0,0.,24.0,0.,24.0
1979-03-09 18:51:19.120 ,1,1,0.,24.0,0.,24.0,0.,24.0,0.,24.0
1979-03-09 18:51:43.120 ,2,1,0.,24.0,0.,24.0,0.,24.0,0.,24.0
1979-03-09 18:52:07.110 ,3,1,0.,24.0,0.,24.0,0.,24.0,0.,24.0
1979-03-09 18:52:31.110 ,4,1,0.,24.0,0.,24.0,0.,24.0,0.,24.0
1979-03-09 18:52:55.110 ,5,1,0.,24.0,0.,24.0,0.,24.0,0.,24.0
1979-03-09 18:53:19.110 ,6,1,0.,24.0,0.,24.0,0.,24.0,0.,24.0
1979-03-09 18:53:43.110 ,7,1,4.,24.0,0.,24.0,0.,24.0,0.,24.0
1979-03-09 18:54:07.110 ,7,1,11.,24.0,0.,24.0,0.,24.0,0.,24.0
1979-03-09 18:54:31.110 ,6,1,8.,24.0,0.,24.0,1.,24.0,0.,24.0
1979-03-09 18:54:55.110 ,5,1,1.,24.0,0.,24.0,0.,24.0,0.,24.0
1979-03-09 18:55:19.110 ,4,1,0.,24.0,0.,24.0,0.,24.0,0.,24.0
1979-03-09 18:55:43.110 ,3,1,1.,24.0,0.,24.0,0.,24.0,0.,24.0
1979-03-09 18:56:07.110 ,2,1,0.,24.0,0.,24.0,0.,24.0,0.,24.0
1979-03-09 18:56:31.110 ,1,1,0.,24.0,0.,24.0,0.,24.0,0.,24.0
1979-03-09 18:56:55.110 ,0,1,0.,24.0,0.,24.0,0.,24.0,0.,24.0
1979-03-09 18:57:19.110 ,0,1,0.,24.0,0.,24.0,0.,24.0,0.,24.0
1979-03-09 18:57:43.110 ,1,1,0.,24.0,0.,24.0,0.,24.0,0.,24.0
1979-03-09 18:58:07.110 ,2,1,0.,24.0,0.,24.0,1.,24.0,0.,24.0
1979-03-09 18:58:31.110 ,3,1,0.,24.0,0.,24.0,0.,24.0,0.,24.0
1979-03-09 18:58:55.110 ,4,1,0.,24.0,0.,24.0,0.,24.0,0.,24.0
1979-03-09 18:59:19.110 ,5,1,0.,24.0,0.,24.0,0.,24.0,0.,24.0
1979-03-09 18:59:43.110 ,6,1,0.,24.0,0.,24.0,1.,24.0,0.,24.0
1979-03-09 19:00:07.110 ,7,1,2.,24.0,0.,24.0,0.,24.0,0.,24.0
1979-03-09 19:00:31.110 ,7,1,13.,24.0,0.,24.0,0.,24.0,0.,24.0
1979-03-09 19:00:55.110 ,6,1,3.,24.0,0.,24.0,0.,24.0,0.,24.0
1979-03-09 19:01:19.110 ,5,1,0.,24.0,0.,24.0,0.,24.0,0.,24.0
1979-03-09 19:01:43.100 ,4,1,0.,24.0,1.,24.0,1.,24.0,0.,24.0
1979-03-09 19:02:07.100 ,3,1,0.,24.0,0.,24.0,0.,24.0,0.,24.0
1979-03-09 19:02:31.100 ,2,1,0.,24.0,0.,24.0,0.,24.0,0.,24.0
1979-03-09 19:02:55.100 ,1,1,0.,24.0,0.,24.0,0.,24.0,0.,24.0
1979-03-09 19:03:19.100 ,0,1,0.,24.0,0.,24.0,0.,24.0,0.,24.0
1979-03-09 19:03:43.100 ,0,1,0.,24.0,0.,24.0,1.,24.0,0.,24.0
1979-03-09 19:04:07.100 ,1,1,0.,24.0,0.,24.0,1.,24.0,0.,24.0
1979-03-09 19:04:31.100 ,2,1,0.,24.0,0.,24.0,0.,24.0,0.,24.0
1979-03-09 19:04:55.100 ,3,1,0.,24.0,0.,24.0,0.,24.0,0.,24.0
1979-03-09 19:05:19.100 ,4,1,0.,24.0,0.,24.0,0.,24.0,0.,24.0
1979-03-09 19:05:43.100 ,5,1,0.,24.0,0.,24.0,0.,24.0,0.,24.0
1979-03-09 19:06:07.100 ,6,1,0.,24.0,0.,24.0,0.,24.0,0.,24.0
1979-03-09 19:06:31.100 ,7,1,1.,24.0,0.,24.0,0.,24.0,0.,24.0
1979-03-09 19:06:55.100 ,7,1,8.,24.0,0.,24.0,1.,24.0,0.,24.0
1979-03-09 19:07:19.100 ,6,1,9.,24.0,0.,24.0,0.,24.0,0.,24.0
1979-03-09 19:07:43.100 ,5,1,0.,24.0,0.,24.0,1.,24.0,0.,24.0
1979-03-09 19:08:07.100 ,4,1,0.,24.0,0.,24.0,0.,24.0,0.,24.0
1979-03-09 19:08:31.100 ,3,1,0.,24.0,0.,24.0,1.,24.0,0.,24.0
1979-03-09 19:08:55.100 ,2,1,0.,24.0,0.,24.0,0.,24.0,0.,24.0
1979-03-09 19:09:19.100 ,1,1,0.,24.0,0.,24.0,0.,24.0,0.,24.0
1979-03-09 19:09:43.090 ,0,1,0.,24.0,0.,24.0,0.,24.0,0.,24.0
1979-03-09 19:10:07.090 ,0,1,0.,24.0,0.,24.0,0.,24.0,0.,24.0
1979-03-09 19:10:55.090 ,2,1,0.,24.0,0.,24.0,0.,24.0,0.,24.0
1979-03-09 19:11:19.090 ,3,1,0.,24.0,0.,24.0,0.,24.0,0.,24.0
1979-03-09 19:11:43.090 ,4,1,0.,24.0,0.,24.0,0.,24.0,0.,24.0
1979-03-09 19:12:07.090 ,5,1,0.,24.0,0.,24.0,0.,24.0,0.,24.0
1979-03-09 19:12:31.090 ,6,1,0.,24.0,0.,24.0,1.,24.0,0.,24.0
1979-03-09 19:12:55.090 ,7,1,1.,24.0,0.,24.0,0.,24.0,0.,24.0
1979-03-09 19:13:19.090 ,7,1,11.,24.0,0.,24.0,0.,24.0,0.,24.0
1979-03-09 19:13:43.090 ,6,1,8.,24.0,0.,24.0,0.,24.0,0.,24.0
1979-03-09 19:14:07.090 ,5,1,0.,24.0,0.,24.0,0.,24.0,0.,24.0
1979-03-09 19:14:31.090 ,4,1,0.,24.0,0.,24.0,1.,24.0,0.,24.0
1979-03-09 19:14:55.090 ,3,1,0.,24.0,0.,24.0,0.,24.0,0.,24.0
1979-03-09 19:15:19.090 ,0,0,0.,24.0,0.,24.0,0.,24.0,0.,24.0
1979-03-09 19:15:43.090 ,0,0,0.,24.0,0.,24.0,0.,24.0,0.,24.0
1979-03-09 19:16:07.090 ,0,1,0.,24.0,0.,24.0,0.,24.0,0.,24.0
1979-03-09 19:16:31.090 ,0,1,0.,24.0,0.,24.0,0.,24.0,0.,24.0
1979-03-09 19:16:55.090 ,2,1,0.,24.0,0.,24.0,0.,24.0,0.,24.0
1979-03-09 19:17:19.090 ,6,1,0.,24.0,0.,24.0,0.,24.0,0.,24.0
1979-03-09 19:17:43.090 ,5,1,4.,24.0,0.,24.0,0.,24.0,0.,24.0
1979-03-09 19:18:07.090 ,1,1,0.,24.0,0.,24.0,0.,24.0,0.,24.0
1979-03-09 19:18:31.090 ,2,1,0.,24.0,0.,24.0,0.,24.0,0.,24.0
1979-03-09 19:18:55.090 ,6,1,0.,24.0,0.,24.0,1.,24.0,0.,24.0
1979-03-09 19:19:19.090 ,5,1,4.,24.0,0.,24.0,1.,24.0,0.,24.0
1979-03-09 19:19:43.090 ,1,1,0.,24.0,0.,24.0,0.,24.0,0.,24.0
1979-03-09 19:20:07.080 ,2,1,0.,24.0,0.,24.0,0.,24.0,0.,24.0
1979-03-09 19:20:31.080 ,6,1,0.,24.0,0.,24.0,0.,24.0,0.,24.0
1979-03-09 19:20:55.080 ,5,1,3.,24.0,0.,24.0,0.,24.0,0.,24.0
1979-03-09 19:21:19.080 ,1,1,0.,24.0,0.,24.0,0.,24.0,0.,24.0
1979-03-09 19:21:43.080 ,2,1,0.,24.0,0.,24.0,0.,24.0,0.,24.0
1979-03-09 19:22:07.080 ,6,1,0.,24.0,0.,24.0,0.,24.0,0.,24.0
1979-03-09 19:23:19.810 ,0,0,0.,24.0,0.,24.0,1.,24.0,0.,24.0
1979-03-09 19:23:43.810 ,6,1,0.,24.0,0.,24.0,0.,24.0,0.,24.0
1979-03-09 19:24:07.810 ,5,1,5.,24.0,0.,24.0,0.,24.0,0.,24.0
1979-03-09 19:24:31.810 ,1,1,0.,24.0,0.,24.0,0.,24.0,0.,24.0
1979-03-09 19:24:55.810 ,2,1,0.,24.0,0.,24.0,0.,24.0,0.,24.0
1979-03-09 19:25:19.810 ,6,1,0.,24.0,0.,24.0,0.,24.0,0.,24.0
1979-03-09 19:25:43.810 ,5,1,4.,24.0,0.,24.0,0.,24.0,0.,24.0
1979-03-09 19:26:07.810 ,1,1,0.,24.0,0.,24.0,0.,24.0,0.,24.0
1979-03-09 19:26:31.810 ,2,1,0.,24.0,0.,24.0,0.,24.0,0.,24.0
1979-03-09 19:26:55.810 ,6,1,0.,24.0,0.,24.0,0.,24.0,0.,24.0
1979-03-09 19:27:19.810 ,5,1,3.,24.0,0.,24.0,0.,24.0,0.,24.0
1979-03-09 19:27:43.810 ,1,1,0.,24.0,0.,24.0,0.,24.0,0.,24.0
1979-03-09 19:28:07.810 ,2,1,0.,24.0,0.,24.0,0.,24.0,0.,24.0
1979-03-09 19:28:31.810 ,6,1,0.,24.0,0.,24.0,0.,24.0,0.,24.0
1979-03-09 19:28:55.810 ,5,1,4.,24.0,0.,24.0,0.,24.0,0.,24.0
1979-03-09 19:29:19.810 ,1,1,0.,24.0,0.,24.0,0.,24.0,0.,24.0
1979-03-09 19:29:43.810 ,2,1,0.,24.0,0.,24.0,0.,24.0,0.,24.0
1979-03-09 19:30:07.810 ,6,1,0.,24.0,0.,24.0,0.,24.0,0.,24.0
1979-03-09 19:30:31.810 ,5,1,7.,24.0,0.,24.0,0.,24.0,0.,24.0
1979-03-09 19:30:55.810 ,1,1,0.,24.0,0.,24.0,0.,24.0,0.,24.0
1979-03-09 19:31:19.810 ,2,1,0.,24.0,0.,24.0,0.,24.0,0.,24.0
1979-03-09 19:31:43.810 ,6,1,0.,24.0,0.,24.0,0.,24.0,0.,24.0
1979-03-09 19:32:07.810 ,5,1,3.,24.0,0.,24.0,0.,24.0,0.,24.0
1979-03-09 19:32:31.810 ,1,1,0.,24.0,0.,24.0,0.,24.0,0.,24.0
1979-03-09 19:32:55.810 ,2,1,1.,24.0,0.,24.0,0.,24.0,0.,24.0
1979-03-09 19:33:19.810 ,6,1,0.,24.0,0.,24.0,1.,24.0,0.,24.0
1979-03-09 19:33:43.810 ,5,1,7.,24.0,0.,24.0,0.,24.0,0.,24.0
1979-03-09 19:34:07.810 ,1,1,0.,24.0,0.,24.0,0.,24.0,0.,24.0
1979-03-09 19:34:31.810 ,2,1,0.,24.0,0.,24.0,0.,24.0,0.,24.0
1979-03-09 19:34:55.810 ,6,1,0.,24.0,0.,24.0,0.,24.0,0.,24.0
1979-03-09 19:35:19.810 ,5,1,6.,24.0,0.,24.0,0.,24.0,0.,24.0
1979-03-09 19:35:43.810 ,1,1,0.,24.0,0.,24.0,1.,24.0,0.,24.0
1979-03-09 19:36:07.810 ,2,1,0.,24.0,0.,24.0,0.,24.0,0.,24.0
1979-03-09 19:36:31.810 ,6,1,0.,24.0,0.,24.0,0.,24.0,0.,24.0
1979-03-09 19:36:55.810 ,5,1,7.,24.0,0.,24.0,0.,24.0,0.,24.0
1979-03-09 19:37:19.810 ,1,1,0.,24.0,0.,24.0,0.,24.0,0.,24.0
1979-03-09 19:37:43.810 ,2,1,0.,24.0,0.,24.0,0.,24.0,0.,24.0
1979-03-09 19:38:07.810 ,6,1,0.,24.0,0.,24.0,0.,24.0,0.,24.0
1979-03-09 19:38:31.810 ,5,1,4.,24.0,0.,24.0,0.,24.0,0.,24.0
1979-03-09 19:38:55.810 ,1,1,0.,24.0,0.,24.0,0.,24.0,0.,24.0
1979-03-09 19:39:19.810 ,2,1,0.,24.0,0.,24.0,0.,24.0,0.,24.0
1979-03-09 19:39:43.810 ,6,1,0.,24.0,0.,24.0,2.,24.0,0.,24.0
1979-03-09 19:40:07.810 ,5,1,4.,24.0,0.,24.0,0.,24.0,0.,24.0
1979-03-09 19:40:31.810 ,1,1,0.,24.0,0.,24.0,2.,24.0,0.,24.0
1979-03-09 19:40:55.810 ,2,1,0.,24.0,0.,24.0,4.,24.0,0.,24.0
1979-03-09 19:41:19.810 ,6,1,0.,24.0,0.,24.0,0.,24.0,0.,24.0
1979-03-09 19:41:43.810 ,5,1,6.,24.0,0.,24.0,0.,24.0,0.,24.0
1979-03-09 19:42:07.810 ,1,1,0.,24.0,0.,24.0,0.,24.0,0.,24.0
1979-03-09 19:42:31.810 ,2,1,0.,24.0,1.,24.0,1.,24.0,0.,24.0
1979-03-09 19:42:55.810 ,6,1,0.,24.0,0.,24.0,0.,24.0,0.,24.0
1979-03-09 19:43:19.810 ,5,1,7.,24.0,0.,24.0,0.,24.0,0.,24.0
1979-03-09 19:43:43.810 ,1,1,0.,24.0,0.,24.0,1.,24.0,0.,24.0
1979-03-09 19:44:07.810 ,2,1,0.,24.0,0.,24.0,1.,24.0,0.,24.0
1979-03-09 19:44:31.810 ,6,1,0.,24.0,0.,24.0,0.,24.0,0.,24.0
1979-03-09 19:44:55.810 ,5,1,3.,24.0,0.,24.0,1.,24.0,0.,24.0
1979-03-09 19:45:19.810 ,1,1,0.,24.0,0.,24.0,0.,24.0,0.,24.0
1979-03-09 19:45:43.810 ,2,1,0.,24.0,0.,24.0,0.,24.0,0.,24.0
1979-03-09 19:46:07.810 ,6,1,0.,24.0,0.,24.0,0.,24.0,0.,24.0
1979-03-09 19:46:31.810 ,5,1,5.,24.0,0.,24.0,0.,24.0,0.,24.0
1979-03-09 19:46:55.810 ,1,1,0.,24.0,0.,24.0,0.,24.0,0.,24.0
1979-03-09 19:47:19.810 ,2,1,0.,24.0,0.,24.0,1.,24.0,0.,24.0
1979-03-09 19:47:43.810 ,6,1,0.,24.0,0.,24.0,1.,24.0,0.,24.0
1979-03-09 19:48:07.810 ,0,0,3.,24.0,0.,24.0,1.,24.0,0.,24.0
1979-03-09 19:48:31.810 ,0,0,0.,24.0,0.,24.0,0.,24.0,0.,24.0
1979-03-09 19:48:55.810 ,2,1,0.,24.0,0.,24.0,1.,24.0,0.,24.0
1979-03-09 19:49:19.810 ,6,1,0.,24.0,0.,24.0,1.,24.0,0.,24.0
1979-03-09 19:49:43.810 ,5,1,8.,24.0,0.,24.0,0.,24.0,0.,24.0
1979-03-09 19:50:07.810 ,1,1,0.,24.0,1.,24.0,0.,24.0,0.,24.0
1979-03-09 19:50:31.810 ,2,1,0.,24.0,0.,24.0,0.,24.0,0.,24.0
1979-03-09 19:50:55.810 ,6,1,0.,24.0,0.,24.0,1.,24.0,0.,24.0
1979-03-09 19:51:19.810 ,5,1,4.,24.0,0.,24.0,2.,24.0,0.,24.0
1979-03-09 19:51:43.810 ,1,1,0.,24.0,0.,24.0,2.,24.0,0.,24.0
1979-03-09 19:52:07.810 ,2,1,0.,24.0,0.,24.0,2.,24.0,0.,24.0
1979-03-09 19:52:31.810 ,6,1,0.,24.0,0.,24.0,2.,24.0,0.,24.0
1979-03-09 19:52:55.810 ,5,1,11.,24.0,0.,24.0,0.,24.0,0.,24.0
1979-03-09 19:53:19.810 ,1,1,0.,24.0,0.,24.0,1.,24.0,0.,24.0
1979-03-09 19:53:43.810 ,2,1,0.,24.0,0.,24.0,1.,24.0,0.,24.0
1979-03-09 19:54:07.810 ,6,1,0.,24.0,0.,24.0,0.,24.0,0.,24.0
1979-03-09 19:54:31.810 ,5,1,3.,24.0,0.,24.0,0.,24.0,0.,24.0
1979-03-09 19:54:55.810 ,1,1,0.,24.0,0.,24.0,2.,24.0,0.,24.0
1979-03-09 19:55:19.810 ,2,1,0.,24.0,0.,24.0,0.,24.0,0.,24.0
1979-03-09 19:55:43.810 ,6,1,0.,24.0,0.,24.0,3.,24.0,0.,24.0
1979-03-09 19:56:07.810 ,5,1,7.,24.0,0.,24.0,4.,24.0,0.,24.0
1979-03-09 19:56:31.810 ,1,1,0.,24.0,0.,24.0,0.,24.0,0.,24.0
1979-03-09 19:56:55.810 ,2,1,0.,24.0,0.,24.0,1.,24.0,0.,24.0
1979-03-09 19:57:19.810 ,6,1,0.,24.0,0.,24.0,1.,24.0,0.,24.0
1979-03-09 19:57:43.810 ,5,1,8.,24.0,0.,24.0,2.,24.0,0.,24.0
1979-03-09 19:58:07.810 ,1,1,0.,24.0,0.,24.0,0.,24.0,0.,24.0
1979-03-09 19:58:31.810 ,2,1,0.,24.0,0.,24.0,0.,24.0,0.,24.0
1979-03-09 19:58:55.810 ,6,1,0.,24.0,0.,24.0,2.,24.0,0.,24.0
1979-03-09 19:59:19.810 ,5,1,6.,24.0,0.,24.0,5.,24.0,0.,24.0
1979-03-09 19:59:43.810 ,1,1,0.,24.0,0.,24.0,2.,24.0,0.,24.0
1979-03-09 20:00:07.810 ,2,1,0.,24.0,0.,24.0,1.,24.0,0.,24.0
1979-03-09 20:00:31.810 ,6,1,0.,24.0,0.,24.0,2.,24.0,0.,24.0
1979-03-09 20:00:55.810 ,5,1,3.,24.0,0.,24.0,1.,24.0,0.,24.0
1979-03-09 20:01:19.810 ,1,1,0.,24.0,0.,24.0,2.,24.0,0.,24.0
1979-03-09 20:01:43.810 ,2,1,0.,24.0,0.,24.0,1.,24.0,0.,24.0
1979-03-09 20:02:07.810 ,6,1,0.,24.0,0.,24.0,1.,24.0,0.,24.0
1979-03-09 20:02:31.810 ,5,1,7.,24.0,0.,24.0,3.,24.0,0.,24.0
1979-03-09 20:02:55.810 ,1,1,0.,24.0,0.,24.0,1.,24.0,0.,24.0
1979-03-09 20:03:19.810 ,2,1,0.,24.0,0.,24.0,4.,24.0,0.,24.0
1979-03-09 20:03:43.810 ,6,1,0.,24.0,0.,24.0,2.,24.0,0.,24.0
1979-03-09 20:04:07.810 ,5,1,9.,24.0,0.,24.0,1.,24.0,0.,24.0
1979-03-09 20:04:31.810 ,1,1,0.,24.0,0.,24.0,0.,24.0,0.,24.0
1979-03-09 20:04:55.810 ,2,1,0.,24.0,0.,24.0,1.,24.0,0.,24.0
1979-03-09 20:05:19.810 ,6,1,0.,24.0,0.,24.0,0.,24.0,0.,24.0
1979-03-09 20:05:43.810 ,5,1,5.,24.0,0.,24.0,2.,24.0,0.,24.0
1979-03-09 20:06:07.810 ,1,1,0.,24.0,0.,24.0,2.,24.0,0.,24.0
1979-03-09 20:06:31.810 ,2,1,0.,24.0,0.,24.0,1.,24.0,0.,24.0
1979-03-09 20:06:55.810 ,6,1,0.,24.0,0.,24.0,1.,24.0,0.,24.0
1979-03-09 20:07:19.810 ,5,1,4.,24.0,0.,24.0,1.,24.0,0.,24.0
1979-03-09 20:07:43.810 ,1,1,0.,24.0,0.,24.0,2.,24.0,0.,24.0
1979-03-09 20:08:07.810 ,2,1,0.,24.0,0.,24.0,0.,24.0,0.,24.0
1979-03-09 20:08:31.810 ,6,1,0.,24.0,0.,24.0,0.,24.0,0.,24.0
1979-03-09 20:08:55.810 ,5,1,5.,24.0,0.,24.0,1.,24.0,0.,24.0
1979-03-09 20:09:19.810 ,1,1,0.,24.0,0.,24.0,0.,24.0,0.,24.0
1979-03-09 20:09:43.810 ,2,1,0.,24.0,0.,24.0,0.,24.0,0.,24.0
1979-03-09 20:10:07.810 ,6,1,0.,24.0,0.,24.0,0.,24.0,0.,24.0
1979-03-09 20:10:31.810 ,5,1,2.,24.0,0.,24.0,1.,24.0,0.,24.0
1979-03-09 20:10:55.810 ,1,1,0.,24.0,0.,24.0,0.,24.0,0.,24.0
1979-03-09 20:11:19.810 ,2,1,0.,24.0,0.,24.0,2.,24.0,0.,24.0
1979-03-09 20:11:43.810 ,6,1,0.,24.0,0.,24.0,1.,24.0,0.,24.0
1979-03-09 20:12:07.810 ,5,1,4.,24.0,0.,24.0,1.,24.0,0.,24.0
1979-03-09 20:12:31.810 ,1,1,0.,24.0,0.,24.0,5.,24.0,0.,24.0
1979-03-09 20:12:55.810 ,2,1,0.,24.0,0.,24.0,0.,24.0,0.,24.0
1979-03-09 20:13:19.810 ,6,1,0.,24.0,0.,24.0,2.,24.0,0.,24.0
1979-03-09 20:13:43.810 ,5,1,2.,24.0,0.,24.0,2.,24.0,0.,24.0
1979-03-09 20:14:07.810 ,1,1,0.,24.0,0.,24.0,2.,24.0,0.,24.0
1979-03-09 20:14:31.810 ,2,1,0.,24.0,0.,24.0,6.,24.0,0.,24.0
1979-03-09 20:14:55.810 ,6,1,0.,24.0,0.,24.0,3.,24.0,0.,24.0
1979-03-09 20:15:19.810 ,5,1,7.,24.0,0.,24.0,5.,24.0,0.,24.0
1979-03-09 20:15:43.810 ,1,1,0.,24.0,0.,24.0,2.,24.0,0.,24.0
1979-03-09 20:16:07.810 ,2,1,0.,24.0,0.,24.0,5.,24.0,0.,24.0
1979-03-09 20:16:31.810 ,6,1,0.,24.0,0.,24.0,3.,24.0,0.,24.0
1979-03-09 20:16:55.810 ,5,1,8.,24.0,0.,24.0,3.,24.0,0.,24.0
1979-03-09 20:17:19.810 ,1,1,0.,24.0,0.,24.0,2.,24.0,0.,24.0
1979-03-09 20:17:43.810 ,2,1,0.,24.0,0.,24.0,4.,24.0,0.,24.0
1979-03-09 20:18:07.810 ,6,1,0.,24.0,0.,24.0,0.,24.0,0.,24.0
1979-03-09 20:18:31.810 ,5,1,6.,24.0,0.,24.0,6.,24.0,0.,24.0
1979-03-09 20:18:55.810 ,1,1,0.,24.0,0.,24.0,4.,24.0,0.,24.0
1979-03-09 20:19:19.810 ,2,1,0.,24.0,0.,24.0,5.,24.0,0.,24.0
1979-03-09 20:19:43.810 ,6,1,0.,24.0,0.,24.0,6.,24.0,0.,24.0
1979-03-09 20:20:07.810 ,5,1,5.,24.0,0.,24.0,4.,24.0,0.,24.0
1979-03-09 20:20:31.810 ,1,1,0.,24.0,0.,24.0,7.,24.0,0.,24.0
1979-03-09 20:20:55.810 ,2,1,0.,24.0,0.,24.0,6.,24.0,0.,24.0
1979-03-09 20:21:19.810 ,6,1,0.,24.0,1.,24.0,6.,24.0,0.,24.0
1979-03-09 20:21:43.810 ,5,1,6.,24.0,0.,24.0,8.,24.0,0.,24.0
1979-03-09 20:22:07.810 ,1,1,0.,24.0,0.,24.0,8.,24.0,0.,24.0
1979-03-09 20:22:31.810 ,2,1,0.,24.0,0.,24.0,8.,24.0,0.,24.0
1979-03-09 20:22:55.810 ,6,1,0.,24.0,0.,24.0,7.,24.0,0.,24.0
1979-03-09 20:23:19.810 ,5,1,5.,24.0,0.,24.0,6.,24.0,0.,24.0
1979-03-09 20:23:43.810 ,1,1,0.,24.0,0.,24.0,4.,24.0,0.,24.0
1979-03-09 20:24:07.810 ,2,1,0.,24.0,0.,24.0,8.,24.0,0.,24.0
1979-03-09 20:24:31.810 ,6,1,0.,24.0,0.,24.0,4.,24.0,0.,24.0
1979-03-09 20:24:55.810 ,5,1,5.,24.0,0.,24.0,1.,24.0,0.,24.0
1979-03-09 20:25:19.810 ,1,1,0.,24.0,0.,24.0,3.,24.0,0.,24.0
1979-03-09 20:25:43.810 ,2,1,0.,24.0,0.,24.0,3.,24.0,0.,24.0
1979-03-09 20:26:07.810 ,6,1,0.,24.0,0.,24.0,2.,24.0,0.,24.0
1979-03-09 20:26:31.810 ,5,1,2.,24.0,0.,24.0,1.,24.0,0.,24.0
1979-03-09 20:26:55.810 ,1,1,0.,24.0,0.,24.0,1.,24.0,0.,24.0
1979-03-09 20:27:19.810 ,2,1,0.,24.0,0.,24.0,1.,24.0,0.,24.0
1979-03-09 20:27:43.810 ,6,1,0.,24.0,0.,24.0,4.,24.0,0.,24.0
1979-03-09 20:28:07.810 ,5,1,7.,24.0,0.,24.0,2.,24.0,0.,24.0
1979-03-09 20:28:31.810 ,1,1,0.,24.0,0.,24.0,7.,24.0,0.,24.0
1979-03-09 20:28:55.810 ,2,1,0.,24.0,0.,24.0,0.,24.0,0.,24.0
1979-03-09 20:29:19.810 ,6,1,0.,24.0,0.,24.0,4.,24.0,0.,24.0
1979-03-09 20:29:43.810 ,5,1,5.,24.0,0.,24.0,3.,24.0,0.,24.0
1979-03-09 20:30:07.810 ,1,1,0.,24.0,0.,24.0,3.,24.0,0.,24.0
1979-03-09 20:30:31.810 ,2,1,0.,24.0,0.,24.0,1.,24.0,0.,24.0
1979-03-09 20:30:55.810 ,6,1,0.,24.0,0.,24.0,5.,24.0,0.,24.0
1979-03-09 20:31:19.810 ,5,1,2.,24.0,0.,24.0,3.,24.0,0.,24.0
1979-03-09 20:31:43.810 ,1,1,0.,24.0,0.,24.0,2.,24.0,0.,24.0
1979-03-09 20:32:07.810 ,2,1,0.,24.0,0.,24.0,1.,24.0,0.,24.0
1979-03-09 20:32:31.810 ,6,1,0.,24.0,0.,24.0,0.,24.0,0.,24.0
1979-03-09 20:32:55.810 ,5,1,1.,24.0,0.,24.0,1.,24.0,0.,24.0
1979-03-09 20:33:19.810 ,1,1,0.,24.0,0.,24.0,3.,24.0,0.,24.0
1979-03-09 20:33:43.810 ,2,1,0.,24.0,0.,24.0,1.,24.0,0.,24.0
1979-03-09 20:34:07.810 ,6,1,0.,24.0,0.,24.0,3.,24.0,0.,24.0
1979-03-09 20:34:31.810 ,5,1,3.,24.0,0.,24.0,4.,24.0,0.,24.0
1979-03-09 20:34:55.810 ,1,1,0.,24.0,0.,24.0,6.,24.0,0.,24.0
1979-03-09 20:35:19.810 ,2,1,0.,24.0,0.,24.0,4.,24.0,0.,24.0